LVLHI LSZH-LIML

Flight info

Callsign LVLHI
Flight time N/A
Altitude 39000
Route VEBIT T53 GERSA N850 SOSON DCT ODINA
Aircraft LJ35/M-SGHRWXY/SB1

Departure

Time 2026-04-30 14:47
Airport Zürich Airport (LSZH)

Arrival

Time N/A
Airport Milano Linate Airport (LIML)
Time Latitude Longitude Altitude Speed Heading
2026-04-30 14:24 47.45239 8.54772 1388 ft 0 kts 155°
2026-04-30 14:34 47.45240 8.54772 1389 ft 0 kts 155°
2026-04-30 14:36 47.45251 8.54764 1387 ft 2 kts 154°
2026-04-30 14:36 47.45266 8.54753 1388 ft 2 kts 152°
2026-04-30 14:36 47.45280 8.54741 1389 ft 2 kts 148°
2026-04-30 14:36 47.45293 8.54726 1389 ft 2 kts 124°
2026-04-30 14:37 47.45294 8.54707 1389 ft 1 kts 64°
2026-04-30 14:37 47.45293 8.54705 1387 ft 0 kts 60°
2026-04-30 14:39 47.45293 8.54704 1389 ft 0 kts 60°
2026-04-30 14:41 47.45293 8.54705 1389 ft 0 kts 60°
2026-04-30 14:41 47.45296 8.54711 1387 ft 2 kts 60°
2026-04-30 14:42 47.45323 8.54721 1389 ft 7 kts
2026-04-30 14:42 47.45356 8.54789 1387 ft 10 kts 59°
2026-04-30 14:42 47.45424 8.54793 1388 ft 14 kts 336°
2026-04-30 14:42 47.45518 8.54708 1391 ft 18 kts 287°
2026-04-30 14:43 47.45566 8.54494 1386 ft 26 kts 288°
2026-04-30 14:43 47.45627 8.54214 1385 ft 31 kts 288°
2026-04-30 14:43 47.45692 8.53918 1388 ft 22 kts 288°
2026-04-30 14:43 47.45730 8.53783 1389 ft 12 kts 312°
2026-04-30 14:44 47.45795 8.53747 1390 ft 0 kts
2026-04-30 14:46 47.45837 8.53754 1390 ft 12 kts 16°
2026-04-30 14:47 47.45887 8.53872 1390 ft 20 kts 96°
2026-04-30 14:47 47.45835 8.54596 1397 ft 134 kts 97°
2026-04-30 14:47 47.45690 8.56192 2535 ft 165 kts 95°
2026-04-30 14:47 47.45513 8.58095 3523 ft 200 kts 93°
2026-04-30 14:48 47.45389 8.60282 4609 ft 232 kts 94°
2026-04-30 14:48 47.45246 8.62901 5021 ft 283 kts 92°
2026-04-30 14:48 47.45452 8.65997 5299 ft 305 kts 80°
2026-04-30 14:48 47.45751 8.68669 6306 ft 241 kts 81°
2026-04-30 14:49 47.45973 8.71009 6958 ft 225 kts 82°
2026-04-30 14:49 47.46181 8.73329 7452 ft 230 kts 86°
2026-04-30 14:49 47.45840 8.75742 7958 ft 255 kts 117°
2026-04-30 14:49 47.44629 8.77708 8670 ft 270 kts 146°
2026-04-30 14:50 47.40926 8.78191 10570 ft 288 kts 201°
2026-04-30 14:50 47.39250 8.76490 11541 ft 325 kts 224°
2026-04-30 14:51 47.36062 8.70962 14174 ft 375 kts 227°
2026-04-30 14:51 47.34148 8.68226 15499 ft 390 kts 219°
2026-04-30 14:51 47.29572 8.63943 17773 ft 378 kts 208°
2026-04-30 14:52 47.27339 8.62042 18697 ft 363 kts 211°
2026-04-30 14:52 47.23258 8.57926 20195 ft 360 kts 214°
2026-04-30 14:52 47.21094 8.55833 21054 ft 384 kts 212°
2026-04-30 14:53 47.16056 8.52472 23004 ft 414 kts 192°
2026-04-30 14:53 47.13159 8.51976 24041 ft 421 kts 178°
2026-04-30 14:54 47.07291 8.52728 26005 ft 429 kts 171°
2026-04-30 14:54 47.01315 8.53589 28181 ft 431 kts 171°
2026-04-30 14:55 46.95186 8.54476 28976 ft 462 kts 171°
2026-04-30 14:55 46.91938 8.54949 28979 ft 473 kts 171°
2026-04-30 14:55 46.85525 8.55850 28985 ft 455 kts 171°
2026-04-30 14:56 46.79313 8.56757 28982 ft 443 kts 171°
2026-04-30 14:56 46.73323 8.57599 28977 ft 414 kts 171°
2026-04-30 14:57 46.70518 8.58004 28985 ft 397 kts 171°
2026-04-30 14:57 46.65015 8.58802 28047 ft 397 kts 171°
2026-04-30 14:58 46.59442 8.59592 26401 ft 412 kts 171°
2026-04-30 14:58 46.56607 8.59987 26104 ft 406 kts 171°
2026-04-30 14:58 46.51018 8.60787 25476 ft 400 kts 171°
2026-04-30 14:59 46.45485 8.61568 24927 ft 396 kts 171°
2026-04-30 15:00 46.37284 8.62728 24090 ft 392 kts 171°
2026-04-30 15:00 46.31809 8.63496 22905 ft 401 kts 172°
2026-04-30 15:01 46.26211 8.64285 21533 ft 406 kts 172°
2026-04-30 15:01 46.24345 8.64551 21140 ft 407 kts 172°
2026-04-30 15:01 46.17755 8.65465 19764 ft 406 kts 173°
2026-04-30 15:02 46.15896 8.65725 19384 ft 405 kts 173°
2026-04-30 15:02 46.13097 8.66128 18811 ft 403 kts 172°
2026-04-30 15:03 46.05521 8.70032 17662 ft 341 kts 143°
2026-04-30 15:03 46.01780 8.73392 17816 ft 307 kts 149°
2026-04-30 15:04 45.97795 8.76359 16969 ft 343 kts 149°
2026-04-30 15:04 45.91959 8.80965 15825 ft 361 kts 150°
2026-04-30 15:05 45.86549 8.88202 14584 ft 353 kts 129°
2026-04-30 15:06 45.83344 8.93516 13773 ft 352 kts 135°
2026-04-30 15:06 45.78855 8.96147 12862 ft 356 kts 172°
2026-04-30 15:07 45.74115 8.96930 12932 ft 331 kts 173°
2026-04-30 15:07 45.69612 8.97627 12719 ft 326 kts 173°
2026-04-30 15:08 45.65102 8.98315 11932 ft 328 kts 173°
2026-04-30 15:08 45.58329 8.99347 10803 ft 324 kts 173°
2026-04-30 15:09 45.53873 9.00023 10100 ft 314 kts 174°
2026-04-30 15:09 45.49774 9.00636 9309 ft 286 kts 173°
2026-04-30 15:10 45.45882 9.01221 8504 ft 277 kts 173°
2026-04-30 15:11 45.38753 9.04601 7062 ft 271 kts 154°
2026-04-30 15:11 45.35351 9.06898 6387 ft 272 kts 153°
2026-04-30 15:12 45.30372 9.10364 5297 ft 246 kts 152°
2026-04-30 15:13 45.27403 9.12435 4603 ft 236 kts 152°
2026-04-30 15:14 45.21645 9.16273 3309 ft 220 kts 153°
2026-04-30 15:14 45.19620 9.20704 2980 ft 174 kts 84°
2026-04-30 15:16 45.22816 9.27036 2990 ft 189 kts 24°
2026-04-30 15:17 45.28260 9.29394 2742 ft 217 kts
2026-04-30 15:18 45.34893 9.28734 2080 ft 155 kts 360°
2026-04-30 15:19 45.37754 9.28437 1519 ft 135 kts 359°